Time,TemperatureF,DewpointF,PressureIn,WindDirection,WindDirectionDegrees,WindSpeedMPH,WindSpeedGustMPH,Humidity,HourlyPrecipIn,Conditions,Clouds,dailyrainin,SolarRadiationWatts/m^2,SoftwareType,DateUTC
2014-01-20 00:02:00,45.0,22.0,-100.00,NNW,338,6.0,8.0,40,0.00,,,-99.99,0.000000,,2014-01-20 08:02:00,
2014-01-20 00:11:00,45.0,22.0,-100.00,NNW,338,6.0,8.0,40,0.00,,,-99.99,0.000000,,2014-01-20 08:11:00,
2014-01-20 00:32:00,40.0,21.0,-100.00,NNW,336,5.0,7.0,47,-99.99,,,0.00,0.000000,,2014-01-20 08:32:00,
2014-01-20 00:52:00,40.0,21.0,-100.00,NNW,336,5.0,7.0,47,-99.99,,,0.00,0.000000,,2014-01-20 08:52:00,
2014-01-20 01:02:00,40.0,21.0,-100.00,NNW,336,5.0,7.0,47,-99.99,,,0.00,0.000000,,2014-01-20 09:02:00,
2014-01-20 01:11:00,40.0,21.0,-100.00,NNW,336,5.0,7.0,47,-99.99,,,0.00,0.000000,,2014-01-20 09:11:00,
2014-01-20 01:22:00,40.0,21.0,-100.00,NNW,336,5.0,7.0,47,-99.99,,,0.00,0.000000,,2014-01-20 09:22:00,
2014-01-20 01:32:00,40.0,21.0,-100.00,NNW,333,5.0,7.0,47,0.00,,,0.00,0.000000,,2014-01-20 09:32:00,
2014-01-20 01:53:00,40.0,21.0,-100.00,NNW,333,5.0,7.0,47,0.00,,,0.00,0.000000,,2014-01-20 09:53:00,
2014-01-20 02:03:00,40.0,21.0,-100.00,NNW,333,5.0,7.0,47,0.00,,,0.00,0.000000,,2014-01-20 10:03:00,
2014-01-20 02:12:00,40.0,21.0,-100.00,NNW,333,5.0,7.0,47,0.00,,,0.00,0.000000,,2014-01-20 10:12:00,
2014-01-20 02:23:00,40.0,21.0,-100.00,NNW,333,5.0,7.0,47,0.00,,,0.00,0.000000,,2014-01-20 10:23:00,
2014-01-20 02:32:00,42.0,22.0,-100.00,NNW,332,6.0,10.0,44,0.00,,,0.00,0.000000,,2014-01-20 10:32:00,
2014-01-20 02:53:00,42.0,22.0,-100.00,NNW,332,6.0,10.0,44,0.00,,,0.00,0.000000,,2014-01-20 10:53:00,
2014-01-20 03:02:00,42.0,22.0,-100.00,NNW,332,6.0,10.0,44,0.00,,,0.00,0.000000,,2014-01-20 11:02:00,
2014-01-20 03:12:00,42.0,22.0,-100.00,NNW,332,6.0,10.0,44,0.00,,,0.00,0.000000,,2014-01-20 11:12:00,
2014-01-20 03:22:00,42.0,22.0,-100.00,NNW,332,6.0,10.0,44,0.00,,,0.00,0.000000,,2014-01-20 11:22:00,
2014-01-20 03:32:00,40.0,22.0,-100.00,NW,326,5.0,8.0,48,0.00,,,0.00,0.000000,,2014-01-20 11:32:00,
2014-01-20 03:53:00,40.0,22.0,-100.00,NW,326,5.0,8.0,48,0.00,,,0.00,0.000000,,2014-01-20 11:53:00,
2014-01-20 04:02:00,40.0,22.0,-100.00,NW,326,5.0,8.0,48,0.00,,,0.00,0.000000,,2014-01-20 12:02:00,
2014-01-20 04:11:00,40.0,22.0,-100.00,NW,326,5.0,8.0,48,0.00,,,0.00,0.000000,,2014-01-20 12:11:00,
2014-01-20 04:21:00,40.0,22.0,-100.00,NW,326,5.0,8.0,48,0.00,,,0.00,0.000000,,2014-01-20 12:21:00,
2014-01-20 04:52:00,41.0,20.0,-100.00,NNW,328,5.0,9.0,43,0.00,,,0.00,0.000000,,2014-01-20 12:52:00,
2014-01-20 05:01:00,41.0,20.0,-100.00,NNW,328,5.0,9.0,43,0.00,,,0.00,0.000000,,2014-01-20 13:01:00,
2014-01-20 05:11:00,41.0,20.0,-100.00,NNW,328,5.0,9.0,43,0.00,,,0.00,0.000000,,2014-01-20 13:11:00,
2014-01-20 05:21:00,41.0,20.0,-100.00,NNW,328,5.0,9.0,43,0.00,,,0.00,0.000000,,2014-01-20 13:21:00,
2014-01-20 05:31:00,41.0,20.0,-100.00,NNW,328,5.0,9.0,43,0.00,,,0.00,0.000000,,2014-01-20 13:31:00,
2014-01-20 05:52:00,40.0,20.0,-100.00,NW,324,5.0,10.0,45,0.00,,,0.00,0.000000,,2014-01-20 13:52:00,
2014-01-20 06:02:00,40.0,20.0,-100.00,NW,324,5.0,10.0,45,0.00,,,0.00,0.000000,,2014-01-20 14:02:00,
2014-01-20 06:11:00,40.0,20.0,-100.00,NW,324,5.0,10.0,45,0.00,,,0.00,0.000000,,2014-01-20 14:11:00,
2014-01-20 06:21:00,40.0,20.0,-100.00,NW,324,5.0,10.0,45,0.00,,,0.00,0.000000,,2014-01-20 14:21:00,
2014-01-20 06:31:00,40.0,20.0,-100.00,NW,324,5.0,10.0,45,0.00,,,0.00,0.000000,,2014-01-20 14:31:00,
2014-01-20 06:32:00,38.0,18.0,-100.00,NW,326,5.0,9.0,44,0.00,,,0.00,0.000000,,2014-01-20 14:32:00,
2014-01-20 06:52:00,38.0,18.0,-100.00,NW,326,5.0,9.0,44,0.00,,,0.00,0.000000,,2014-01-20 14:52:00,
2014-01-20 07:01:00,38.0,18.0,-100.00,NW,326,5.0,9.0,44,0.00,,,0.00,0.000000,,2014-01-20 15:01:00,
2014-01-20 07:11:00,38.0,18.0,-100.00,NW,326,5.0,9.0,44,0.00,,,0.00,0.000000,,2014-01-20 15:11:00,
2014-01-20 07:21:00,38.0,18.0,-100.00,NW,326,5.0,9.0,44,0.00,,,0.00,0.000000,,2014-01-20 15:21:00,
2014-01-20 07:32:00,39.0,19.0,-100.00,NNW,329,5.0,9.0,45,0.00,,,-99.99,0.000000,,2014-01-20 15:32:00,
2014-01-20 07:53:00,39.0,19.0,-100.00,NNW,329,5.0,9.0,45,0.00,,,-99.99,0.000000,,2014-01-20 15:53:00,
2014-01-20 08:03:00,39.0,19.0,-100.00,NNW,329,5.0,9.0,45,0.00,,,-99.99,0.000000,,2014-01-20 16:03:00,
2014-01-20 08:12:00,39.0,19.0,-100.00,NNW,329,5.0,9.0,45,0.00,,,-99.99,0.000000,,2014-01-20 16:12:00,
2014-01-20 08:22:00,39.0,19.0,-100.00,NNW,329,5.0,9.0,45,0.00,,,-99.99,0.000000,,2014-01-20 16:22:00,
2014-01-20 08:32:00,40.0,20.0,-100.00,NNW,327,6.0,10.0,44,0.00,,,0.00,15.000000,,2014-01-20 16:32:00,
2014-01-20 08:52:00,40.0,20.0,-100.00,NNW,327,6.0,10.0,44,0.00,,,0.00,15.000000,,2014-01-20 16:52:00,
2014-01-20 09:02:00,40.0,20.0,-100.00,NNW,327,6.0,10.0,44,0.00,,,0.00,15.000000,,2014-01-20 17:02:00,
2014-01-20 09:12:00,40.0,20.0,-100.00,NNW,327,6.0,10.0,44,0.00,,,0.00,15.000000,,2014-01-20 17:12:00,
2014-01-20 09:22:00,40.0,20.0,-100.00,NNW,327,6.0,10.0,44,0.00,,,0.00,15.000000,,2014-01-20 17:22:00,
2014-01-20 09:32:00,45.0,24.0,-100.00,NW,315,5.0,9.0,43,0.00,,,0.00,83.000000,,2014-01-20 17:32:00,
2014-01-20 09:52:00,45.0,24.0,-100.00,NW,315,5.0,9.0,43,0.00,,,0.00,83.000000,,2014-01-20 17:52:00,
2014-01-20 10:02:00,45.0,24.0,-100.00,NW,315,5.0,9.0,43,0.00,,,0.00,83.000000,,2014-01-20 18:02:00,
2014-01-20 10:12:00,45.0,24.0,-100.00,NW,315,5.0,9.0,43,0.00,,,0.00,83.000000,,2014-01-20 18:12:00,
2014-01-20 10:21:00,45.0,24.0,-100.00,NW,315,5.0,9.0,43,0.00,,,0.00,83.000000,,2014-01-20 18:21:00,
2014-01-20 10:52:00,56.0,26.0,-100.00,NW,326,4.0,9.0,31,0.00,,,0.00,366.000000,,2014-01-20 18:52:00,
2014-01-20 11:02:00,56.0,26.0,-100.00,NW,326,4.0,9.0,31,0.00,,,0.00,366.000000,,2014-01-20 19:02:00,
2014-01-20 11:32:00,61.0,25.0,-100.00,NW,325,3.0,7.0,25,0.00,,,0.00,435.000000,,2014-01-20 19:32:00,
2014-01-20 11:52:00,61.0,25.0,-100.00,NW,325,3.0,7.0,25,0.00,,,0.00,435.000000,,2014-01-20 19:52:00,
2014-01-20 12:02:00,61.0,25.0,-100.00,NW,325,3.0,7.0,25,0.00,,,0.00,435.000000,,2014-01-20 20:02:00,
2014-01-20 12:22:00,61.0,25.0,-100.00,NW,325,3.0,7.0,25,0.00,,,0.00,435.000000,,2014-01-20 20:22:00,
2014-01-20 12:32:00,66.0,26.0,-100.00,NNW,330,3.0,6.0,22,0.00,,,0.00,203.000000,,2014-01-20 20:32:00,
2014-01-20 13:22:00,66.0,26.0,-100.00,NNW,330,3.0,6.0,22,0.00,,,0.00,203.000000,,2014-01-20 21:22:00,
2014-01-20 14:32:00,65.0,18.0,-100.00,NNW,345,2.0,4.0,16,0.00,,,0.00,423.000000,,2014-01-20 22:32:00,
2014-01-20 14:53:00,65.0,18.0,-100.00,NNW,345,2.0,4.0,16,0.00,,,0.00,423.000000,,2014-01-20 22:53:00,
2014-01-20 15:02:00,65.0,18.0,-100.00,NNW,345,2.0,4.0,16,0.00,,,0.00,423.000000,,2014-01-20 23:02:00,
2014-01-20 15:12:00,65.0,18.0,-100.00,NNW,345,2.0,4.0,16,0.00,,,0.00,423.000000,,2014-01-20 23:12:00,
2014-01-20 15:21:00,65.0,18.0,-100.00,NNW,345,2.0,4.0,16,0.00,,,0.00,423.000000,,2014-01-20 23:21:00,
2014-01-20 15:32:00,68.0,20.0,-100.00,NNW,343,2.0,3.0,16,0.00,,,0.00,53.000000,,2014-01-20 23:32:00,
2014-01-20 15:52:00,68.0,20.0,-100.00,NNW,343,2.0,3.0,16,0.00,,,0.00,53.000000,,2014-01-20 23:52:00,
2014-01-20 16:01:00,68.0,20.0,-100.00,NNW,343,2.0,3.0,16,0.00,,,0.00,53.000000,,2014-01-21 00:01:00,
2014-01-20 16:11:00,68.0,20.0,-100.00,NNW,343,2.0,3.0,16,0.00,,,0.00,53.000000,,2014-01-21 00:11:00,
2014-01-20 16:21:00,68.0,20.0,-100.00,NNW,343,2.0,3.0,16,0.00,,,0.00,53.000000,,2014-01-21 00:21:00,
2014-01-20 16:52:00,57.0,17.0,-100.00,NNW,336,2.0,2.0,21,-99.99,,,0.00,109.000000,,2014-01-21 00:52:00,
2014-01-20 17:02:00,57.0,17.0,-100.00,NNW,336,2.0,2.0,21,-99.99,,,0.00,109.000000,,2014-01-21 01:02:00,
2014-01-20 17:22:00,57.0,17.0,-100.00,NNW,336,2.0,2.0,21,-99.99,,,0.00,109.000000,,2014-01-21 01:22:00,
2014-01-20 17:31:00,57.0,17.0,-100.00,NNW,336,2.0,2.0,21,-99.99,,,0.00,109.000000,,2014-01-21 01:31:00,
2014-01-20 17:32:00,52.0,15.0,-100.00,NW,306,2.0,5.0,23,0.00,,,0.00,5.000000,,2014-01-21 01:32:00,
2014-01-20 17:52:00,52.0,15.0,-100.00,NW,306,2.0,5.0,23,0.00,,,0.00,5.000000,,2014-01-21 01:52:00,
2014-01-20 18:01:00,52.0,15.0,-100.00,NW,306,2.0,5.0,23,0.00,,,0.00,5.000000,,2014-01-21 02:01:00,
2014-01-20 18:11:00,52.0,15.0,-100.00,NW,306,2.0,5.0,23,0.00,,,0.00,5.000000,,2014-01-21 02:11:00,
2014-01-20 18:21:00,52.0,15.0,-100.00,NW,306,2.0,5.0,23,0.00,,,0.00,5.000000,,2014-01-21 02:21:00,
2014-01-20 18:32:00,52.0,18.0,-100.00,NNW,328,5.0,7.0,26,0.00,,,0.00,0.000000,,2014-01-21 02:32:00,
2014-01-20 18:52:00,52.0,18.0,-100.00,NNW,328,5.0,7.0,26,0.00,,,0.00,0.000000,,2014-01-21 02:52:00,
2014-01-20 19:02:00,52.0,18.0,-100.00,NNW,328,5.0,7.0,26,0.00,,,0.00,0.000000,,2014-01-21 03:02:00,
2014-01-20 19:11:00,52.0,18.0,-100.00,NNW,328,5.0,7.0,26,0.00,,,0.00,0.000000,,2014-01-21 03:11:00,
2014-01-20 19:21:00,52.0,18.0,-100.00,NNW,328,5.0,7.0,26,0.00,,,0.00,0.000000,,2014-01-21 03:21:00,
2014-01-20 19:32:00,49.0,17.0,-100.00,NNW,344,4.0,6.0,28,0.00,,,0.00,0.000000,,2014-01-21 03:32:00,
2014-01-20 19:53:00,49.0,17.0,-100.00,NNW,344,4.0,6.0,28,0.00,,,0.00,0.000000,,2014-01-21 03:53:00,
2014-01-20 20:04:00,49.0,17.0,-100.00,NNW,344,4.0,6.0,28,0.00,,,0.00,0.000000,,2014-01-21 04:04:00,
2014-01-20 20:12:00,49.0,17.0,-100.00,NNW,344,4.0,6.0,28,0.00,,,0.00,0.000000,,2014-01-21 04:12:00,
2014-01-20 20:23:00,49.0,17.0,-100.00,NNW,344,4.0,6.0,28,0.00,,,0.00,0.000000,,2014-01-21 04:23:00,
2014-01-20 20:32:00,45.0,18.0,-100.00,NNW,332,4.0,7.0,33,0.00,,,0.00,0.000000,,2014-01-21 04:32:00,
2014-01-20 20:52:00,45.0,18.0,-100.00,NNW,332,4.0,7.0,33,0.00,,,0.00,0.000000,,2014-01-21 04:52:00,
2014-01-20 21:01:00,45.0,18.0,-100.00,NNW,332,4.0,7.0,33,0.00,,,0.00,0.000000,,2014-01-21 05:01:00,
2014-01-20 21:12:00,45.0,18.0,-100.00,NNW,332,4.0,7.0,33,0.00,,,0.00,0.000000,,2014-01-21 05:12:00,
2014-01-20 21:22:00,45.0,18.0,-100.00,NNW,332,4.0,7.0,33,0.00,,,0.00,0.000000,,2014-01-21 05:22:00,
2014-01-20 21:32:00,45.0,16.0,-100.00,NNW,348,5.0,8.0,31,0.00,,,0.00,0.000000,,2014-01-21 05:32:00,
2014-01-20 21:52:00,45.0,16.0,-100.00,NNW,348,5.0,8.0,31,0.00,,,0.00,0.000000,,2014-01-21 05:52:00,
2014-01-20 22:02:00,45.0,16.0,-100.00,NNW,348,5.0,8.0,31,0.00,,,0.00,0.000000,,2014-01-21 06:02:00,
2014-01-20 22:12:00,45.0,16.0,-100.00,NNW,348,5.0,8.0,31,0.00,,,0.00,0.000000,,2014-01-21 06:12:00,
2014-01-20 22:21:00,45.0,16.0,-100.00,NNW,348,5.0,8.0,31,0.00,,,0.00,0.000000,,2014-01-21 06:21:00,
2014-01-20 22:32:00,44.0,17.0,-100.00,NNW,340,5.0,8.0,33,0.00,,,0.00,0.000000,,2014-01-21 06:32:00,
2014-01-20 22:52:00,44.0,17.0,-100.00,NNW,340,5.0,8.0,33,0.00,,,0.00,0.000000,,2014-01-21 06:52:00,
2014-01-20 23:02:00,44.0,17.0,-100.00,NNW,340,5.0,8.0,33,0.00,,,0.00,0.000000,,2014-01-21 07:02:00,
2014-01-20 23:11:00,44.0,17.0,-100.00,NNW,340,5.0,8.0,33,0.00,,,0.00,0.000000,,2014-01-21 07:11:00,
2014-01-20 23:21:00,44.0,17.0,-100.00,NNW,340,5.0,8.0,33,0.00,,,0.00,0.000000,,2014-01-21 07:21:00,
2014-01-20 23:32:00,42.0,16.0,-100.00,NNW,336,5.0,8.0,35,0.00,,,0.00,0.000000,,2014-01-21 07:32:00,
2014-01-20 23:53:00,42.0,16.0,-100.00,NNW,336,5.0,8.0,35,0.00,,,0.00,0.000000,,2014-01-21 07:53:00,